Hourly Data Report for November 10, 2017

All times are specified in Local Standard Time (LST). Add 1 hour to adjust for Daylight Saving Time where and when it is observed.

SUDBURY A
ONTARIO

46°37'32.000" N
80°47'52.000" W
348.40 m
6068153
71730
YSB

Download Data

Hourly Data (November 2017)
Hourly Data Report for November 10, 2017
Temp Definition
°C
Dew Point Temp Definition
°C
Rel Hum Definition
%
Wind Dir Definition
10's deg

Wind Spd Definition
km/h
Visibility Definition
km
Stn Press Definition
kPa
Hmdx Definition


Wind Chill Definition


Weather Definition


TIME
00:00 Legend Double Dagger -16.4 -20.2 73 32 20 9.7 97.90   -26 Snow
01:00 Legend Double Dagger -16.8 -20.9 71 34 29 24.1 98.03   -28 Mainly Clear
02:00 Legend Double Dagger -17.1 -21.3 70 31 30 24.1 98.13   -29 LegendNANA
03:00 Legend Double Dagger -17.3 -21.4 71 31 26 24.1 98.26   -28 LegendNANA
04:00 Legend Double Dagger -17.5 -21.8 70 31 28 24.1 98.37   -29 Mostly Cloudy
05:00 Legend Double Dagger -18.0 -21.5 75 31 19 24.1 98.49   -28 LegendNANA
06:00 Legend Double Dagger -18.3 -21.6 75 30 21 24.1 98.61   -29 LegendNANA
07:00 Legend Double Dagger -18.4 -21.9 75 28 16 32.2 98.73   -27 Mainly Clear
08:00 Legend Double Dagger -18.0 -21.6 74 30 17 32.2 98.81   -27 LegendNANA
09:00 Legend Double Dagger -16.2 -20.5 70 29 22 32.2 98.83   -26 LegendNANA
10:00 Legend Double Dagger -13.8 -18.0 71 30 20 32.2 98.88   -23 Mainly Clear
11:00 Legend Double Dagger -11.3 -16.2 68 32 27 24.1 98.89   -21 LegendNANA
12:00 Legend Double Dagger -9.3 -15.1 63 32 29 32.2 98.89   -18 LegendNANA
13:00 Legend Double Dagger -7.7 -13.6 63 29 27 32.2 98.85   -16 Mainly Clear
14:00 Legend Double Dagger -7.0 -12.8 64 33 30 32.2 98.88   -16 LegendNANA
15:00 Legend Double Dagger -6.6 -12.8 61 32 26 32.2 98.92   -15 LegendNANA
16:00 Legend Double Dagger -6.7 -12.7 62 31 22 32.2 99.02   -14 Mainly Clear
17:00 Legend Double Dagger -7.8 -13.0 66 31 16 32.2 99.09   -14 LegendNANA
18:00 Legend Double Dagger -9.0 -13.1 72 33 9 24.1 99.17   -14 LegendNANA
19:00 Legend Double Dagger -10.2 -13.2 79 30 8 24.1 99.22   -15 Mainly Clear
20:00 Legend Double Dagger -11.1 -13.6 82 35 10 24.1 99.25   -17 LegendNANA
21:00 Legend Double Dagger -11.7 -13.7 85 36 5 24.1 99.28   -15 LegendNANA
22:00 Legend Double Dagger -12.3 -14.5 84 34 7 24.1 99.28   -17 Mainly Clear
23:00 Legend Double Dagger -11.3 -13.2 86 30 10 24.1 99.27   -17 LegendNANA

Notes on Data Quality.

Legend

  • E = Estimated
  • M = Missing
  • NA = Not Available
  • ‡ = Partner data that is not subject to review by the National Climate Archives
Date modified: